CMP473 MPTO-TIST

Flight info

Callsign CMP473
Flight time N/A
Altitude 19000
Route REMAL1A REMAL A574 PONPO/N0465F350 DCT BAQ/N0459F370 DCT MELLA G633 MAZ RTE12 SJU RTE6 PALCO
Aircraft B737/M-SDE2E3FGHIRWXY/LB1

Departure

Time 2026-05-06 21:07
Airport Tocumen International Airport (MPTO)

Arrival

Time N/A
Airport Cyril E. King Airport (TIST)
Time Latitude Longitude Altitude Speed Heading
2026-05-06 20:41 9.06116 -79.39045 51 ft 0 kts 330°
2026-05-06 20:56 9.06113 -79.39043 50 ft 1 kts 330°
2026-05-06 20:56 9.06101 -79.39037 50 ft 2 kts 330°
2026-05-06 20:56 9.06092 -79.39030 49 ft 2 kts 315°
2026-05-06 20:57 9.06083 -79.39018 48 ft 2 kts 299°
2026-05-06 20:57 9.06078 -79.39005 48 ft 2 kts 282°
2026-05-06 20:57 9.06076 -79.38991 47 ft 2 kts 266°
2026-05-06 20:57 9.06079 -79.38975 46 ft 2 kts 249°
2026-05-06 20:58 9.06083 -79.38967 45 ft 1 kts 239°
2026-05-06 20:58 9.06085 -79.38963 45 ft 0 kts 239°
2026-05-06 21:01 9.06086 -79.38962 45 ft 0 kts 238°
2026-05-06 21:01 9.06067 -79.38993 47 ft 7 kts 235°
2026-05-06 21:01 9.06052 -79.39012 47 ft 8 kts 229°
2026-05-06 21:02 9.06039 -79.39027 47 ft 9 kts 221°
2026-05-06 21:02 9.05969 -79.39068 47 ft 13 kts 207°
2026-05-06 21:02 9.05876 -79.39113 46 ft 15 kts 206°
2026-05-06 21:02 9.05764 -79.39166 38 ft 18 kts 202°
2026-05-06 21:03 9.05691 -79.39129 36 ft 14 kts 118°
2026-05-06 21:03 9.05640 -79.39036 36 ft 16 kts 123°
2026-05-06 21:03 9.05542 -79.39002 32 ft 19 kts 217°
2026-05-06 21:03 9.05426 -79.39075 31 ft 20 kts 208°
2026-05-06 21:04 9.05317 -79.39137 30 ft 12 kts 210°
2026-05-06 21:04 9.05248 -79.39178 29 ft 10 kts 208°
2026-05-06 21:04 9.05176 -79.39212 29 ft 14 kts 205°
2026-05-06 21:04 9.05076 -79.39274 29 ft 19 kts 213°
2026-05-06 21:05 9.04951 -79.39347 28 ft 16 kts 208°
2026-05-06 21:05 9.04873 -79.39384 28 ft 4 kts 190°
2026-05-06 21:05 9.04839 -79.39373 28 ft 4 kts 132°
2026-05-06 21:05 9.04811 -79.39329 28 ft 10 kts 121°
2026-05-06 21:06 9.04779 -79.39265 27 ft 10 kts 101°
2026-05-06 21:06 9.04837 -79.39215 29 ft 5 kts 24°
2026-05-06 21:06 9.04839 -79.39214 29 ft 0 kts 26°
2026-05-06 21:06 9.04850 -79.39208 29 ft 8 kts 26°
2026-05-06 21:07 9.05073 -79.39083 29 ft 74 kts 30°
2026-05-06 21:07 9.05748 -79.38699 36 ft 145 kts 30°
2026-05-06 21:07 9.06717 -79.38129 379 ft 172 kts 31°
2026-05-06 21:07 9.07737 -79.37425 1012 ft 188 kts 39°
2026-05-06 21:08 9.08613 -79.36378 1558 ft 210 kts 68°
2026-05-06 21:08 9.08690 -79.34862 2075 ft 229 kts 103°
2026-05-06 21:08 9.08316 -79.33270 2873 ft 238 kts 101°
2026-05-06 21:08 9.08050 -79.31612 3755 ft 246 kts 99°
2026-05-06 21:09 9.07780 -79.29874 4638 ft 254 kts 99°
2026-05-06 21:09 9.07509 -79.28115 5562 ft 259 kts 99°
2026-05-06 21:09 9.07236 -79.26327 6492 ft 263 kts 99°
2026-05-06 21:09 9.06952 -79.24459 7036 ft 272 kts 99°
2026-05-06 21:10 9.06667 -79.22589 7004 ft 268 kts 99°
2026-05-06 21:10 9.06385 -79.20737 6999 ft 264 kts 99°
2026-05-06 21:10 9.06105 -79.18897 7000 ft 265 kts 99°
2026-05-06 21:10 9.05834 -79.17046 6998 ft 265 kts 96°
2026-05-06 21:11 9.05748 -79.15147 7411 ft 279 kts 90°
2026-05-06 21:11 9.05727 -79.13192 8350 ft 282 kts 91°
2026-05-06 21:11 9.05684 -79.11221 9263 ft 286 kts 91°
2026-05-06 21:11 9.05642 -79.09229 10146 ft 289 kts 91°
2026-05-06 21:12 9.05599 -79.07193 11016 ft 293 kts 91°
2026-05-06 21:12 9.05554 -79.05115 11872 ft 297 kts 91°
2026-05-06 21:12 9.05509 -79.03030 12700 ft 300 kts 91°
2026-05-06 21:12 9.05464 -79.00922 13508 ft 304 kts 91°
2026-05-06 21:13 9.05401 -78.98062 14559 ft 309 kts 91°
2026-05-06 21:13 9.05370 -78.96631 15066 ft 311 kts 91°
2026-05-06 21:13 9.05322 -78.94433 15820 ft 315 kts 91°
2026-05-06 21:13 9.05274 -78.92228 16549 ft 318 kts 91°
2026-05-06 21:14 9.05225 -78.89985 17263 ft 322 kts 91°
2026-05-06 21:14 9.05175 -78.87708 17961 ft 325 kts 91°
2026-05-06 21:14 9.05126 -78.85415 18640 ft 329 kts 90°
2026-05-06 21:14 9.05245 -78.83112 19292 ft 332 kts 83°
2026-05-06 21:15 9.05724 -78.80832 19849 ft 338 kts 73°
2026-05-06 21:15 9.06524 -78.78516 19943 ft 360 kts 70°
2026-05-06 21:15 9.07400 -78.76060 20025 ft 381 kts 70°
2026-05-06 21:15 9.08296 -78.73461 20252 ft 398 kts 71°
2026-05-06 21:16 9.09227 -78.70774 20773 ft 406 kts 70°
2026-05-06 21:16 9.10171 -78.68072 21366 ft 411 kts 70°
2026-05-06 21:16 9.11125 -78.65346 21973 ft 415 kts 70°
2026-05-06 21:16 9.12082 -78.62608 22572 ft 419 kts 70°
2026-05-06 21:17 9.13061 -78.59811 23162 ft 423 kts 70°
2026-05-06 21:17 9.14040 -78.57014 23733 ft 427 kts 70°
2026-05-06 21:17 9.15034 -78.54176 24293 ft 430 kts 70°
2026-05-06 21:17 9.16038 -78.51310 24838 ft 434 kts 70°
2026-05-06 21:18 9.17051 -78.48415 25368 ft 437 kts 70°
2026-05-06 21:18 9.18067 -78.45515 25880 ft 441 kts 70°
2026-05-06 21:18 9.19083 -78.42612 26374 ft 444 kts 70°
2026-05-06 21:18 9.20124 -78.39638 26863 ft 447 kts 70°
2026-05-06 21:19 9.21166 -78.36659 27336 ft 451 kts 70°
2026-05-06 21:19 9.22212 -78.33669 27794 ft 454 kts 70°
2026-05-06 21:19 9.23257 -78.30679 28236 ft 457 kts 70°
2026-05-06 21:19 9.24321 -78.27634 28671 ft 460 kts 70°
2026-05-06 21:20 9.25393 -78.24567 29090 ft 463 kts 70°
2026-05-06 21:20 9.26467 -78.21493 29635 ft 462 kts 70°
2026-05-06 21:20 9.27600 -78.18512 30263 ft 459 kts 66°
2026-05-06 21:20 9.28941 -78.15601 30798 ft 458 kts 64°
2026-05-06 21:21 9.30332 -78.12713 31313 ft 456 kts 64°
2026-05-06 21:21 9.31689 -78.09824 31803 ft 455 kts 65°
2026-05-06 21:21 9.33039 -78.06907 32278 ft 454 kts 65°
2026-05-06 21:21 9.34358 -78.04059 32725 ft 453 kts 65°
2026-05-06 21:22 9.35709 -78.01151 33010 ft 456 kts 65°
2026-05-06 21:22 9.38427 -77.95287 32998 ft 467 kts 65°
2026-05-06 21:23 9.41194 -77.89309 33000 ft 467 kts 65°
2026-05-06 21:23 9.43930 -77.83395 33000 ft 465 kts 65°
2026-05-06 21:24 9.46655 -77.77499 33000 ft 465 kts 65°
2026-05-06 21:24 9.49400 -77.71558 33000 ft 466 kts 65°
2026-05-06 21:25 9.52142 -77.65619 33000 ft 466 kts 65°
2026-05-06 21:25 9.54872 -77.59701 33000 ft 465 kts 65°
2026-05-06 21:26 9.57609 -77.53767 33000 ft 465 kts 65°
2026-05-06 21:26 9.60797 -77.46848 32999 ft 465 kts 65°
2026-05-06 21:27 9.63070 -77.41915 33000 ft 465 kts 65°
2026-05-06 21:27 9.65803 -77.35978 32999 ft 465 kts 65°
2026-05-06 21:28 9.68529 -77.30053 33000 ft 465 kts 65°
2026-05-06 21:28 9.71270 -77.24094 33000 ft 465 kts 65°
2026-05-06 21:29 9.73995 -77.18166 33000 ft 465 kts 65°
2026-05-06 21:29 9.76717 -77.12241 32999 ft 465 kts 65°
2026-05-06 21:30 9.79446 -77.06299 32999 ft 465 kts 65°
2026-05-06 21:30 9.82166 -77.00372 33000 ft 465 kts 65°
2026-05-06 21:31 9.84890 -76.94432 33000 ft 465 kts 65°
2026-05-06 21:31 9.87616 -76.88485 33000 ft 465 kts 65°
2026-05-06 21:32 9.90334 -76.82553 32999 ft 465 kts 65°
2026-05-06 21:32 9.94421 -76.73625 32999 ft 465 kts 65°
2026-05-06 21:33 9.97140 -76.67683 32999 ft 465 kts 65°
2026-05-06 21:33 9.99848 -76.61762 32999 ft 465 kts 65°
2026-05-06 21:34 10.02569 -76.55808 32999 ft 465 kts 65°
2026-05-06 21:34 10.05291 -76.49848 32999 ft 465 kts 65°
2026-05-06 21:35 10.07997 -76.43920 32999 ft 465 kts 65°
2026-05-06 21:35 10.10720 -76.37952 33000 ft 465 kts 65°
2026-05-06 21:36 10.13433 -76.32005 32999 ft 465 kts 65°
2026-05-06 21:36 10.16141 -76.26062 32999 ft 465 kts 65°
2026-05-06 21:37 10.18859 -76.20096 33000 ft 465 kts 65°
2026-05-06 21:37 10.21567 -76.14149 32999 ft 465 kts 65°
2026-05-06 21:38 10.24282 -76.08182 33000 ft 465 kts 65°
2026-05-06 21:38 10.26995 -76.02214 32999 ft 465 kts 65°
2026-05-06 21:39 10.29701 -75.96260 32999 ft 465 kts 65°
2026-05-06 21:39 10.32407 -75.90304 33000 ft 465 kts 65°
2026-05-06 21:40 10.35121 -75.84325 32999 ft 465 kts 65°
2026-05-06 21:40 10.37826 -75.78362 33000 ft 465 kts 65°
2026-05-06 21:41 10.40523 -75.72415 33000 ft 465 kts 65°
2026-05-06 21:41 10.43237 -75.66426 33000 ft 465 kts 65°
2026-05-06 21:42 10.45927 -75.60487 33000 ft 465 kts 65°
2026-05-06 21:42 10.48628 -75.54520 32999 ft 465 kts 65°
2026-05-06 21:43 10.51338 -75.48530 32999 ft 465 kts 65°
2026-05-06 21:43 10.54025 -75.42587 32999 ft 465 kts 65°
2026-05-06 21:44 10.56731 -75.36597 33000 ft 465 kts 65°
2026-05-06 21:44 10.59415 -75.30653 33000 ft 465 kts 65°
2026-05-06 21:45 10.62118 -75.24664 33000 ft 465 kts 65°
2026-05-06 21:45 10.64813 -75.18689 33000 ft 465 kts 65°
2026-05-06 21:46 10.67507 -75.12713 33000 ft 465 kts 65°
2026-05-06 21:46 10.70199 -75.06740 32999 ft 465 kts 65°
2026-05-06 21:47 10.72907 -75.00725 32999 ft 465 kts 65°
2026-05-06 21:47 10.75596 -74.94748 32999 ft 465 kts 65°
2026-05-06 21:48 10.78416 -74.88833 32999 ft 465 kts 59°
2026-05-06 21:48 10.82346 -74.83615 33000 ft 465 kts 44°
2026-05-06 21:49 10.87177 -74.79288 32999 ft 466 kts 41°
2026-05-06 21:49 10.92046 -74.74938 32999 ft 466 kts 41°
2026-05-06 21:50 10.96896 -74.70604 33000 ft 465 kts 41°
2026-05-06 21:50 11.01746 -74.66283 33000 ft 465 kts 41°
2026-05-06 21:51 11.06630 -74.61932 32999 ft 465 kts 41°
2026-05-06 21:51 11.11478 -74.57613 33000 ft 465 kts 41°
2026-05-06 21:52 11.16352 -74.53271 33000 ft 465 kts 41°
2026-05-06 21:52 11.21200 -74.48951 33000 ft 465 kts 41°
2026-05-06 21:53 11.26076 -74.44604 33000 ft 465 kts 41°
2026-05-06 21:53 11.30923 -74.40282 32999 ft 465 kts 41°
2026-05-06 21:54 11.35775 -74.35953 33000 ft 465 kts 41°
2026-05-06 21:54 11.40623 -74.31625 32999 ft 465 kts 41°
2026-05-06 21:55 11.45477 -74.27290 32999 ft 465 kts 41°
2026-05-06 21:55 11.50343 -74.22941 33000 ft 465 kts 41°
2026-05-06 21:56 11.55208 -74.18591 33000 ft 465 kts 41°
2026-05-06 21:56 11.60039 -74.14271 33000 ft 465 kts 41°
2026-05-06 21:57 11.64897 -74.09924 32999 ft 465 kts 41°
2026-05-06 21:57 11.69771 -74.05561 32999 ft 465 kts 41°
2026-05-06 21:58 11.74602 -74.01234 32999 ft 465 kts 41°
2026-05-06 21:58 11.79471 -73.96870 33000 ft 465 kts 41°
2026-05-06 21:59 11.84311 -73.92532 32999 ft 465 kts 41°
2026-05-06 21:59 11.89174 -73.88170 32999 ft 465 kts 41°
2026-05-06 22:00 11.93993 -73.83845 32999 ft 465 kts 41°
2026-05-06 22:00 11.98873 -73.79464 32999 ft 465 kts 41°
2026-05-06 22:01 12.03721 -73.75108 33000 ft 465 kts 41°
2026-05-06 22:01 12.08555 -73.70764 32999 ft 465 kts 41°
2026-05-06 22:02 12.13406 -73.66402 33000 ft 465 kts 41°
2026-05-06 22:02 12.18229 -73.62063 33000 ft 465 kts 41°
2026-05-06 22:03 12.23081 -73.57697 33000 ft 465 kts 41°
2026-05-06 22:03 12.27935 -73.53326 33000 ft 465 kts 41°
2026-05-06 22:04 12.32782 -73.48958 33000 ft 465 kts 41°
2026-05-06 22:04 12.37603 -73.44612 32999 ft 465 kts 41°
2026-05-06 22:05 12.42444 -73.40246 33000 ft 465 kts 41°
2026-05-06 22:05 12.47292 -73.35872 32999 ft 465 kts 41°
2026-05-06 22:06 12.52152 -73.31484 33000 ft 465 kts 41°
2026-05-06 22:06 12.56984 -73.27118 32999 ft 465 kts 41°
2026-05-06 22:07 12.61804 -73.22762 32999 ft 465 kts 41°
2026-05-06 22:07 12.66656 -73.18374 32999 ft 465 kts 41°
2026-05-06 22:08 12.71481 -73.14008 32999 ft 465 kts 41°
2026-05-06 22:08 12.76316 -73.09632 32999 ft 465 kts 41°
2026-05-06 22:09 12.81179 -73.05228 33000 ft 465 kts 41°
2026-05-06 22:09 12.86017 -73.00845 33000 ft 465 kts 41°
2026-05-06 22:10 12.90841 -72.96471 32999 ft 465 kts 41°
2026-05-06 22:10 12.95680 -72.92081 33000 ft 465 kts 41°
2026-05-06 22:11 13.00489 -72.87716 32999 ft 465 kts 41°
2026-05-06 22:11 13.05340 -72.83310 33000 ft 465 kts 41°